This demonstration page uses our WeatherBlox Daily Observations layout. Learn more.

Left ArrowRight Arrow

Hourly Observations for February 26, 2022

Temp ( °F °C ) Dew Point ( °F °C ) Humidity (%) Winds ( mph kmh ) Pressure ( in mb ) Visibility ( mi km ) Precip ( " mm )
12:15 am 00:15 Clear 19 -7 5 -15.2 52 52 SSW 10 17 30.57 1035 10 16 0.00 0.00
12:35 am 00:35 Clear 19 -7.3 4 -15.5 52 52 S 9 15 30.57 1035 10 16 0.00 0.00
12:55 am 00:55 Clear 19 -7.5 4 -15.5 53 53 SSW 9 15 30.57 1035 10 16 0.00 0.00
1:15 am 01:15 Clear 18 -7.8 4 -15.6 54 54 SSW 8 13 30.57 1035 10 16 0.00 0.00
1:35 am 01:35 Clear 17 -8.6 4 -15.8 56 56 SSW 10 17 30.58 1036 10 16 0.00 0.00
1:55 am 01:55 Clear 16 -8.8 3 -16.1 56 56 SSW 8 13 30.58 1036 10 16 0.00 0.00
2:15 am 02:15 Clear 16 -9 3 -16 57 57 SSW 8 13 30.59 1036 10 16 0.00 0.00
2:35 am 02:35 Clear 15 -9.5 3 -16.2 59 59 SSW 7 11 30.58 1036 10 16 0.00 0.00
2:55 am 02:55 Clear 17 -8.6 4 -15.7 57 57 SSW 8 13 30.56 1035 10 16 0.00 0.00
3:15 am 03:15 Clear 17 -8.2 4 -15.7 55 55 SSW 9 15 30.55 1034 10 16 0.00 0.00
3:35 am 03:35 Clear 17 -8.6 3 -15.9 56 56 SW 8 13 30.55 1035 10 16 0.00 0.00
3:55 am 03:55 Clear 16 -9 3 -15.9 58 58 SW 7 11 30.55 1034 10 16 0.00 0.00
4:15 am 04:15 Clear 17 -8.6 4 -15.5 58 58 SW 8 13 30.54 1034 10 16 0.00 0.00
4:35 am 04:35 Clear 17 -8.3 4 -15.5 56 56 SW 8 13 30.54 1034 10 16 0.00 0.00
4:55 am 04:55 Clear 16 -8.9 4 -15.7 58 58 SW 7 11 30.55 1034 10 16 0.00 0.00
5:15 am 05:15 Clear 16 -9 4 -15.5 60 60 SW 7 11 30.54 1034 10 16 0.00 0.00
5:35 am 05:35 Clear 16 -8.7 4 -15.5 58 58 SW 6 9 30.53 1034 10 16 0.00 0.00
5:55 am 05:55 Clear 17 -8.3 4 -15.5 56 56 SW 8 13 30.54 1034 10 16 0.00 0.00
6:15 am 06:15 Clear 17 -8.6 4 -15.5 58 58 SW 6 9 30.54 1034 10 16 0.00 0.00
6:35 am 06:35 Clear 16 -8.7 4 -15.5 58 58 SW 5 7 30.53 1034 10 16 0.00 0.00
6:55 am 06:55 Clear 16 -9 4 -15.6 59 59 Calm 30.54 1034 10 16 0.00 0.00
7:15 am 07:15 Mostly Cloudy 16 -8.8 4 -15.7 58 58 Calm 30.53 1034 10 16 0.00 0.00
7:35 am 07:35 Cloudy 18 -8 5 -15.2 57 57 Calm 30.53 1034 10 16 0.00 0.00
7:55 am 07:55 Cloudy 20 -6.6 6 -14.5 54 54 Calm 30.51 1033 10 16 0.00 0.00
8:15 am 08:15 Mostly Cloudy 23 -5 6 -14.5 48 48 WSW 3 6 30.51 1033 10 16 0.00 0.00
8:35 am 08:35 Mostly Cloudy 23 -5.2 5 -15 46 46 WSW 3 6 30.52 1033 10 16 0.00 0.00
8:55 am 08:55 Partly Cloudy 23 -5 5 -14.8 47 47 SW 3 6 30.52 1033 10 16 0.00 0.00
9:15 am 09:15 Mostly Cloudy 24 -4.6 6 -14.2 47 47 SW 3 6 30.51 1033 10 16 0.00 0.00
9:35 am 09:35 Partly Cloudy 28 -2.5 7 -14 41 41 WSW 5 7 30.49 1033 10 16 0.00 0.00
9:55 am 09:55 Sunny 32 -0.2 8 -13.4 37 37 WSW 6 9 30.47 1032 10 16 0.00 0.00
10:15 am 10:15 Partly Cloudy 34 1.1 9 -13 34 34 WSW 6 9 30.46 1031 10 16 0.00 0.00
10:35 am 10:35 Partly Cloudy 37 2.5 9 -12.7 32 32 W 9 15 30.44 1031 10 16 0.00 0.00
10:55 am 10:55 Sunny 37 3 9 -12.7 31 31 W 8 13 30.44 1031 10 16 0.00 0.00
11:15 am 11:15 Sunny 39 3.9 9 -13 28 28 SW 9 15 30.42 1030 10 16 0.00 0.00
11:35 am 11:35 Sunny 40 4.4 8 -13.5 26 26 WSW 10 17 30.41 1030 10 16 0.00 0.00
11:55 am 11:55 Sunny 41 5.1 7 -13.7 24 24 WSW 9 15 30.40 1029 10 16 0.00 0.00
12:15 pm 12:15 Sunny 42 5.8 7 -13.8 23 23 WSW 9 15 30.39 1029 10 16 0.00 0.00
12:35 pm 12:35 Sunny 43 6.1 7 -13.9 22 22 WSW 7 11 30.38 1029 10 16 0.00 0.00
12:55 pm 12:55 Sunny 44 6.9 6 -14.6 20 20 W 10 17 30.36 1028 10 16 0.00 0.00
1:15 pm 13:15 Sunny 45 7 5 -14.9 19 19 W 9 15 30.35 1028 10 16 0.00 0.00
1:35 pm 13:35 Sunny 46 7.5 4 -15.7 18 18 WSW 7 11 30.33 1027 10 16 0.00 0.00
1:55 pm 13:55 Sunny 47 8.1 5 -15 18 18 WSW 7 11 30.31 1026 10 16 0.00 0.00
2:15 pm 14:15 Sunny 47 8.3 6 -14.6 18 18 W 9 15 30.31 1026 10 16 0.00 0.00
2:35 pm 14:35 Sunny 47 8.4 6 -14.6 18 18 WSW 6 9 30.30 1026 10 16 0.00 0.00
2:55 pm 14:55 Sunny 48 8.7 6 -14.4 18 18 W 9 15 30.28 1026 10 16 0.00 0.00
3:15 pm 15:15 Sunny 48 8.8 7 -14.1 18 18 WNW 12 19 30.28 1026 10 16 0.00 0.00
3:35 pm 15:35 Sunny 48 8.9 7 -14 18 18 W 10 17 30.28 1025 10 16 0.00 0.00
3:55 pm 15:55 Sunny 48 9.1 6 -14.2 18 18 W 10 17 30.28 1025 10 16 0.00 0.00
4:15 pm 16:15 Sunny 48 9 6 -14.3 18 18 WNW 6 9 30.27 1025 10 16 0.00 0.00
4:35 pm 16:35 Sunny 47 8.6 6 -14.4 18 18 WNW 9 15 30.28 1025 10 16 0.00 0.00
4:55 pm 16:55 Sunny 47 8.5 6 -14.6 18 18 W 10 17 30.28 1025 10 16 0.00 0.00
5:15 pm 17:15 Sunny 47 8.3 6 -14.7 18 18 W 10 17 30.29 1026 7 11 0.00 0.00
5:35 pm 17:35 Sunny 46 7.6 4 -15.4 18 18 W 8 13 30.29 1026 10 16 0.00 0.00
5:55 pm 17:55 Sunny 45 7 4 -15.8 18 18 W 6 9 30.30 1026 10 16 0.00 0.00
6:15 pm 18:15 Sunny 42 5.7 2 -16.6 18 18 WNW 6 9 30.32 1027 10 16 0.00 0.00
6:35 pm 18:35 Clear 40 4.2 2 -16.6 21 21 WNW 7 11 30.34 1027 10 16 0.00 0.00
6:55 pm 18:55 Clear 34 1.2 1 -17.5 24 24 WNW 5 7 30.37 1029 10 16 0.00 0.00
7:15 pm 19:15 Clear 33 0.5 1 -17.2 25 25 W 7 11 30.39 1029 10 16 0.00 0.00
7:35 pm 19:35 Clear 32 -0.1 1 -17.2 27 27 W 6 9 30.40 1029 10 16 0.00 0.00
7:55 pm 19:55 Clear 31 -0.5 1 -17.1 28 28 W 7 11 30.40 1029 10 16 0.00 0.00
8:15 pm 20:15 Clear 31 -0.8 1 -17 28 28 W 8 13 30.40 1030 10 16 0.00 0.00
8:35 pm 20:35 Clear 31 -0.8 1 -17.1 28 28 W 9 15 30.41 1030 10 16 0.00 0.00
8:55 pm 20:55 Clear 31 -0.8 1 -17.1 28 28 W 7 11 30.41 1030 10 16 0.00 0.00
9:15 pm 21:15 Clear 23 -4.9 -3 -19.2 32 32 WNW 6 9 30.46 1032 10 16 0.00 0.00
9:35 pm 21:35 Clear 24 -4.5 -1 -18.5 33 33 WNW 7 11 30.47 1032 10 16 0.00 0.00
9:55 pm 21:55 Clear 24 -4.4 0 -17.9 34 34 WNW 7 11 30.48 1032 10 16 0.00 0.00
10:15 pm 22:15 Clear 22 -5.6 -1 -18.2 37 37 WNW 6 9 30.49 1033 10 16 0.00 0.00
10:35 pm 22:35 Clear 23 -5 1 -17.1 38 38 WNW 7 11 30.49 1032 7 11 0.00 0.00
10:55 pm 22:55 Clear 22 -5.4 2 -16.9 40 40 WNW 6 9 30.49 1032 10 16 0.00 0.00
11:15 pm 23:15 Clear 20 -6.9 0 -17.8 42 42 WNW 7 11 30.50 1033 10 16 0.00 0.00
11:35 pm 23:35 Clear 20 -6.5 1 -17.3 42 42 WNW 7 11 30.50 1033 10 16 0.00 0.00
11:55 pm 23:55 Clear 18 -7.8 0 -17.6 46 46 WNW 6 9 30.51 1033 10 16 0.00 0.00

Powered by AerisWeather